Starlink 33950

operational
NORAD ID: 63701 Int'l Des: 2025-087 Owner: SPXS Country: US Constellation: starlink
LEOCIRCULAR

Über Starlink 33950

Beschreibung wird geladen...

Live-Position

3D-Globus wird geladen...

Nächste Überflüge

Höhenverlauf

Altitude vs Time

uPlot chart will show altitude changes over time

Zweizeiliger Elementsatz

1 63701U 25087E 25258.42427643 .00057828 00000-0 19461-2 0 9996
2 63701 53.1595 313.7975 0002244 87.8161 272.3096 15.30254807 22362
Epoch: 15. Sept. 2025 • Age: 22 hours

Aktueller Status

Höhe 494.7 km
Geschwindigkeit 7.62 km/s
Subsatellitenpunkt -53.10°S, 101.32°E
Startdatum 28. Apr. 2025
Alter 0.3 years
Typ internet

Technische Details

Klassifizierung Payload
Masse 575.00 kg
Trockenmasse 530.00 kg
Gesamtmasse 575.00 kg
Länge 0.30 m
Durchmesser 4.10 m
Spannweite 29.00 m
Form Box + pan
Hersteller SPXS
Bus-Typ Starlink V2MO
Phasenstatus In Orbit
Besitzer/Staat SPXS/US

Große Konstellationen

Loading constellations...